Date,TemperatureHighF,TemperatureAvgF,TemperatureLowF,DewpointHighF,DewpointAvgF,DewpointLowF,HumidityHigh,HumidityAvg,HumidityLow,PressureMaxIn,PressureMinIn,WindSpeedMaxMPH,WindSpeedAvgMPH,GustSpeedMaxMPH,PrecipitationSumIn
2013-1-1,49.0,46.6,43.9,45.5,39.2,30.0,88,76,54,30.15,29.98,5,0,5,0.23
2013-1-2,48.6,44.5,40.3,45.9,40.8,36.6,91,87,78,30.25,29.98,4,0,4,0.25
2013-1-3,45.0,40.0,30.8,38.3,35.7,27.1,89,85,75,30.31,30.20,3,0,3,0.00
2013-1-4,47.9,37.6,28.4,31.6,27.0,22.2,88,68,42,30.37,30.24,11,1,11,0.00
2013-1-5,50.4,38.4,28.1,31.6,26.7,21.3,78,64,43,30.44,30.30,5,0,5,0.00
2013-1-6,50.6,42.9,36.7,39.7,35.7,31.5,84,76,64,30.30,30.11,4,0,4,0.01
2013-1-7,51.1,38.5,28.6,35.6,29.9,24.7,87,72,50,30.49,30.23,5,0,5,0.00
2013-1-8,53.6,40.5,29.9,40.3,33.6,25.0,87,77,60,30.52,30.41,3,0,3,0.00
2013-1-9,66.8,49.6,34.4,53.0,42.2,30.2,88,76,59,30.50,30.40,6,0,6,0.00
2013-1-10,62.8,52.6,46.3,47.9,43.0,35.2,88,71,51,30.59,30.46,4,0,4,0.00
2013-1-11,51.8,48.0,43.6,48.7,42.0,32.5,91,80,58,30.50,30.20,3,0,3,0.17
2013-1-12,67.0,57.6,50.2,61.7,54.5,47.6,93,89,82,30.22,30.15,4,0,4,0.00
2013-1-13,73.8,63.0,56.2,65.3,57.9,54.2,94,84,66,30.20,30.10,6,1,6,0.02
2013-1-14,68.4,63.3,56.7,62.4,59.3,53.0,92,87,78,30.21,30.12,5,0,5,0.11
2013-1-15,56.5,46.6,44.6,53.3,43.9,42.1,93,90,88,30.30,30.10,6,1,7,0.03
2013-1-16,50.6,47.1,44.1,48.6,45.0,41.8,93,92,92,30.13,30.02,5,0,5,0.20
2013-1-17,51.7,47.2,34.6,49.5,45.0,32.1,94,92,89,30.18,29.95,9,1,9,1.35
2013-1-18,45.0,36.7,29.5,36.4,30.4,25.4,92,79,50,30.58,30.18,6,1,6,0.43
2013-1-19,52.6,36.0,26.3,36.2,28.2,22.4,89,75,46,30.54,30.19,4,0,4,0.08
2013-1-20,61.9,46.4,33.3,39.3,33.8,28.1,85,64,37,30.19,30.02,12,1,12,0.00
2013-1-21,57.6,43.6,29.2,36.5,29.2,22.2,86,60,37,30.13,29.89,9,1,9,0.00
2013-1-22,40.7,33.6,24.3,22.6,9.7,2.0,49,37,24,30.32,29.99,12,1,12,0.00
2013-1-23,40.5,28.5,18.2,17.0,11.6,6.2,69,50,33,30.42,30.09,11,1,11,0.00
2013-1-24,36.4,30.8,23.4,24.0,14.3,6.8,70,51,32,30.56,29.99,10,1,10,0.00
2013-1-25,29.0,25.2,20.5,24.6,14.7,6.4,84,65,48,30.56,30.14,5,0,5,0.00
2013-1-26,37.1,31.5,27.7,31.8,27.2,23.1,86,84,80,30.44,30.12,3,0,3,0.01
2013-1-27,40.9,31.4,23.4,35.7,24.9,19.0,88,77,63,30.64,30.43,5,0,5,0.06
2013-1-28,50.6,41.7,30.1,45.6,35.7,24.7,88,79,65,30.54,30.26,4,0,4,0.04
2013-1-29,71.5,58.3,47.9,58.1,51.1,44.6,89,78,59,30.27,30.11,6,1,6,0.00
2013-1-30,71.5,66.4,58.7,63.7,60.7,54.1,90,82,74,30.11,29.42,15,3,15,0.21
2013-1-31,65.9,47.9,33.5,61.2,32.6,21.3,86,57,36,30.04,29.47,16,2,16,0.18
2013-2-1,40.5,34.8,25.9,28.7,15.7,6.4,71,47,28,30.43,29.90,17,2,17,0.00
2013-2-2,43.7,33.2,19.8,30.2,15.4,8.3,68,49,32,30.43,30.06,10,1,10,0.00
2013-2-3,49.7,42.0,35.1,34.7,28.9,23.0,80,61,42,30.06,29.88,11,1,11,0.00
2013-2-4,49.0,38.3,27.4,26.5,23.4,19.4,76,56,38,30.18,30.03,10,1,10,0.00
2013-2-5,58.0,46.5,37.4,37.5,32.0,25.5,72,58,42,30.04,29.92,9,1,9,0.00
2013-2-6,60.7,44.8,30.6,38.6,28.6,24.8,84,57,28,30.34,30.00,10,1,10,0.00
2013-2-7,49.5,42.8,36.7,40.6,35.3,30.0,88,75,62,30.38,30.04,5,1,5,0.52
2013-2-8,54.7,45.9,40.3,45.9,39.5,29.5,90,79,57,30.07,29.84,13,2,13,0.67
2013-2-9,51.5,40.0,29.5,30.0,24.3,19.1,78,56,29,30.39,30.06,10,1,10,0.00
2013-2-10,38.0,30.4,27.7,24.8,20.7,19.1,75,67,59,30.52,30.39,2,0,2,0.00
2013-2-11,62.5,51.4,44.1,59.1,46.9,36.0,92,85,72,30.25,29.95,6,1,6,0.01
2013-2-12,60.3,53.1,45.2,52.7,38.2,29.6,87,59,34,30.12,29.95,10,1,10,0.02
2013-2-13,48.4,46.6,42.8,45.5,42.3,37.7,90,85,70,29.99,29.66,8,0,8,0.37
2013-2-14,52.6,41.8,32.0,37.9,33.6,28.4,89,74,52,30.11,29.85,6,0,6,0.01
2013-2-15,61.2,44.1,29.7,43.4,32.8,25.7,88,67,38,30.12,29.96,8,0,8,0.00
2013-2-16,45.0,37.8,32.4,36.6,32.1,28.7,88,80,66,30.01,29.86,5,1,5,0.35
2013-2-17,37.6,30.9,24.1,28.9,16.9,9.8,86,58,35,30.31,29.94,16,2,16,0.04
2013-2-18,51.5,34.7,18.4,26.0,19.6,12.0,81,57,32,30.45,30.28,7,1,7,0.04
2013-2-19,52.0,42.8,32.0,48.9,36.5,24.0,89,79,59,30.28,29.89,9,1,9,0.07
2013-2-20,52.6,41.5,32.2,36.1,23.8,16.1,87,53,27,30.18,29.99,12,1,12,0.00
2013-2-21,53.1,40.6,26.8,24.8,21.2,17.1,71,48,29,30.30,30.15,8,1,8,0.00
2013-2-22,41.8,37.6,33.3,33.9,29.7,21.0,87,74,45,30.39,30.17,6,0,6,0.28
2013-2-23,44.8,41.1,37.1,42.2,38.2,33.5,91,89,87,30.17,29.84,4,0,4,0.64
2013-2-24,61.6,49.8,37.6,47.5,39.4,30.2,92,70,36,30.07,29.81,10,1,10,0.06
2013-2-25,44.3,37.9,32.9,30.3,25.5,22.7,77,61,47,30.26,30.07,4,1,4,0.00
2013-2-26,56.7,46.3,34.9,54.6,42.0,25.4,93,85,65,30.19,29.60,6,1,6,0.86
2013-2-27,60.1,50.3,42.8,46.6,40.9,35.8,92,72,46,29.81,29.64,9,1,9,0.01
2013-2-28,50.2,43.3,35.3,38.5,32.3,26.5,86,67,47,29.88,29.73,10,1,10,0.00
2013-3-1,50.9,41.0,29.3,35.1,29.1,23.9,84,64,45,29.94,29.86,9,1,9,0.00
2013-3-2,49.7,41.5,32.0,31.1,26.6,20.1,76,56,41,29.94,29.84,8,1,8,0.00
2013-3-3,47.0,37.9,30.2,24.6,21.1,15.6,67,52,37,30.00,29.86,11,2,11,0.00
2013-3-4,49.7,36.9,25.9,19.8,17.4,14.1,62,47,28,30.13,30.00,12,1,12,0.00
2013-3-5,52.0,42.6,31.3,42.2,33.9,19.6,88,72,45,30.11,29.60,5,0,5,0.58
2013-3-6,45.9,41.6,37.1,39.9,33.8,29.3,89,74,58,30.04,29.53,20,3,20,0.03
2013-3-7,50.6,40.1,32.2,34.1,29.0,25.0,81,65,46,30.26,30.04,8,1,8,0.00
2013-3-8,55.1,44.0,29.5,32.3,26.4,22.5,78,52,33,30.31,30.17,10,2,10,0.00
2013-3-9,61.9,45.5,30.6,33.0,27.9,22.8,76,53,29,30.37,30.27,8,1,8,0.00
2013-3-10,67.0,49.8,31.5,37.9,28.1,24.3,79,48,22,30.36,30.24,5,1,8,0.00
2013-3-11,71.3,56.9,41.6,51.9,42.0,25.9,78,58,40,30.28,29.98,8,1,8,0.00
2013-3-12,69.8,61.7,50.4,63.4,53.2,35.7,91,75,53,29.98,29.79,11,2,11,0.75
2013-3-13,58.7,47.7,34.7,38.4,29.4,19.5,82,51,32,30.15,29.97,17,2,17,0.00
2013-3-14,53.6,40.9,30.4,24.5,20.2,17.6,64,45,27,30.26,30.12,15,2,15,0.00
2013-3-15,63.7,47.0,28.4,35.4,28.3,19.7,74,50,32,30.20,29.92,10,1,10,0.00
2013-3-16,78.5,62.4,47.9,51.0,44.1,34.2,69,52,36,29.92,29.67,7,1,9,0.04
2013-3-17,63.0,51.6,41.2,50.0,43.0,36.0,85,73,59,30.22,29.86,7,1,7,0.08
2013-3-18,43.9,41.2,38.5,40.6,37.7,34.9,90,87,82,30.23,29.88,6,1,6,0.24
2013-3-19,67.0,51.0,41.2,48.3,37.3,19.5,91,66,22,30.05,29.84,12,2,13,0.00
2013-3-20,57.2,46.6,36.0,27.3,20.4,15.8,57,36,23,30.14,29.82,8,1,8,0.00
2013-3-21,47.9,40.2,32.6,30.2,19.7,10.4,67,45,29,30.00,29.76,10,2,11,0.00
2013-3-22,51.5,41.6,25.9,20.4,17.1,11.4,62,38,24,30.10,29.99,9,1,9,0.00
2013-3-23,56.2,43.2,32.4,30.6,26.0,19.4,71,52,32,30.09,29.94,7,0,7,0.00
2013-3-24,41.0,38.4,33.8,36.8,32.9,25.2,88,80,65,29.96,29.60,7,1,7,0.78
2013-3-25,48.8,41.1,36.2,39.8,31.0,24.0,88,70,43,29.83,29.58,13,2,14,0.01
2013-3-26,51.8,43.0,34.0,31.2,27.4,24.5,71,55,43,30.12,29.83,10,1,10,0.00
2013-3-27,54.4,43.0,32.8,30.0,25.0,21.2,73,51,31,30.24,30.12,11,2,11,0.00
2013-3-28,58.0,44.9,31.3,30.4,24.7,22.0,73,47,28,30.31,30.17,12,1,12,0.00
2013-3-29,61.4,46.4,29.9,35.4,26.5,20.9,75,49,27,30.35,30.20,9,1,9,0.00
2013-3-30,67.1,52.1,35.1,38.1,32.4,25.3,77,50,28,30.27,30.11,6,1,8,0.00
2013-3-31,69.7,57.7,48.4,57.6,49.0,37.9,88,73,59,30.13,29.83,7,1,8,0.58
2013-4-1,73.1,61.4,52.9,53.9,47.3,34.3,88,64,33,30.02,29.83,11,1,11,0.02
2013-4-2,61.0,49.9,36.4,34.3,28.1,21.5,74,45,23,30.19,30.02,11,1,11,0.00
2013-4-3,60.7,50.1,38.3,29.9,23.9,19.2,63,38,21,30.33,30.16,9,1,9,0.00
2013-4-4,51.5,43.5,39.6,37.1,30.5,21.3,87,62,41,30.40,29.96,7,1,7,0.76
2013-4-5,64.1,50.0,40.3,48.5,41.8,36.7,89,75,50,30.04,29.89,6,1,6,0.07
2013-4-6,65.3,53.1,39.6,38.0,32.8,24.5,83,50,27,30.30,30.03,7,1,7,0.00
2013-4-7,73.8,56.0,36.0,45.9,38.2,28.2,77,54,35,30.31,30.13,6,1,6,0.00
2013-4-8,80.8,66.8,51.8,58.6,50.8,41.1,85,58,39,30.19,30.07,7,1,7,0.00
2013-4-9,86.8,72.3,59.0,61.7,55.8,52.2,83,59,34,30.20,30.08,7,1,7,0.00
2013-4-10,89.6,75.3,61.7,64.3,58.2,53.0,81,58,36,30.12,29.96,7,1,7,0.00
2013-4-11,84.1,73.6,63.5,65.1,60.1,55.4,83,64,45,30.03,29.83,10,1,10,0.00
2013-4-12,81.5,72.9,66.1,70.7,63.0,49.0,89,72,53,29.85,29.63,9,1,9,0.77
2013-4-13,75.2,64.7,51.5,49.0,43.4,39.9,70,48,30,30.03,29.79,13,1,13,0.00
2013-4-14,82.3,65.8,44.8,54.1,44.3,38.9,84,51,24,30.13,30.03,5,1,6,0.00
2013-4-15,75.1,65.7,58.7,58.0,54.9,48.6,83,69,52,30.25,30.06,7,1,7,0.05
2013-4-16,77.6,66.1,58.7,62.9,57.1,53.3,88,74,52,30.34,30.22,4,0,4,0.00
2013-4-17,85.5,71.3,56.3,67.0,60.6,51.7,88,70,49,30.26,30.13,7,1,7,0.00
2013-4-18,83.2,71.7,61.0,66.2,59.6,55.5,85,67,44,30.23,30.07,8,1,8,0.00
2013-4-19,83.5,72.9,66.2,70.5,64.7,58.8,89,76,59,30.09,29.74,9,1,9,0.56
2013-4-20,66.8,57.2,46.3,63.1,42.3,34.9,88,60,34,30.30,29.84,8,1,8,0.21
2013-4-21,64.3,52.3,41.0,41.6,38.3,35.6,83,61,41,30.52,30.30,7,1,7,0.00
2013-4-22,63.5,51.1,37.8,44.3,38.6,31.2,80,64,44,30.52,30.29,7,1,7,0.04
2013-4-23,66.8,56.0,49.5,50.2,46.5,42.8,82,71,52,30.30,30.15,4,1,4,0.00
2013-4-24,79.2,63.3,46.4,59.5,51.7,41.6,87,68,46,30.17,29.99,9,1,9,0.00
2013-4-25,72.4,63.9,53.5,56.5,47.4,39.1,77,56,39,30.30,30.03,5,1,6,0.00
2013-4-26,74.0,66.4,48.2,50.5,42.2,35.8,85,44,27,30.45,30.34,6,1,6,0.00
2013-4-27,77.2,64.3,52.2,51.7,46.1,41.4,71,54,31,30.41,30.28,5,0,5,0.00
2013-4-28,61.9,59.0,55.4,55.7,49.7,43.3,86,72,59,30.29,30.13,3,0,4,0.44
2013-4-29,71.8,63.4,55.6,64.3,58.7,51.5,90,85,74,30.14,29.99,3,0,4,1.13
2013-4-30,67.7,62.2,56.9,61.0,57.8,52.8,91,85,75,30.20,30.02,3,0,3,0.01
2013-5-1,62.3,59.5,57.1,59.0,56.2,53.2,90,89,87,30.35,30.18,3,1,4,0.02
2013-5-2,63.4,59.3,54.5,57.8,55.3,50.1,91,87,80,30.36,30.28,4,0,4,0.01
2013-5-3,70.6,59.0,49.5,57.5,49.9,43.8,90,73,51,30.29,30.20,5,1,5,0.00
2013-5-4,64.3,56.1,50.0,54.2,48.7,43.8,84,76,66,30.25,30.11,6,1,6,0.00
2013-5-5,60.3,55.8,50.0,55.3,50.6,45.4,87,83,77,30.13,30.02,4,1,4,0.00
2013-5-6,68.0,61.7,56.5,65.0,58.7,52.8,93,90,84,30.04,29.85,6,1,6,1.47
2013-5-7,69.8,61.0,53.6,62.5,56.8,50.1,93,86,72,29.97,29.87,5,0,5,0.40
2013-5-8,72.4,61.6,52.0,63.1,56.7,48.9,92,84,65,30.03,29.94,4,0,6,0.08
2013-5-9,80.8,68.0,57.1,65.3,58.7,53.7,92,74,47,30.08,29.99,6,0,6,0.00
2013-5-10,87.3,72.0,56.0,68.8,60.9,51.7,88,70,45,30.08,29.96,6,0,6,0.00
2013-5-11,85.3,72.8,67.0,70.9,63.9,59.0,89,75,50,29.98,29.81,7,0,7,0.45
2013-5-12,74.9,66.6,53.3,63.9,53.6,39.3,90,66,35,30.05,29.81,10,1,10,0.04
2013-5-13,68.6,57.6,44.5,46.5,39.8,35.6,81,54,31,30.20,30.04,8,1,8,0.00
2013-5-14,72.2,58.1,40.7,47.6,41.4,34.3,82,57,31,30.28,30.10,8,1,8,0.00
2013-5-15,88.2,69.4,53.1,65.5,55.4,44.1,79,63,43,30.10,29.91,7,0,7,0.00
2013-5-16,86.8,75.2,62.6,67.4,61.5,56.7,83,64,42,30.00,29.91,8,0,8,0.00
2013-5-17,88.4,75.2,61.9,68.1,62.7,56.7,86,67,41,30.11,30.00,5,0,5,0.00
2013-5-18,80.5,71.5,64.6,70.1,64.3,58.2,86,78,66,30.20,30.10,6,0,6,0.13
2013-5-19,77.4,69.7,64.8,72.0,65.9,60.8,91,88,81,30.18,30.08,5,0,5,0.41
2013-5-20,78.3,71.6,68.0,72.5,68.2,65.0,92,89,82,30.15,30.05,4,0,5,0.77
2013-5-21,85.7,75.0,69.3,75.2,69.5,66.0,92,83,64,30.08,29.97,5,0,5,0.00
2013-5-22,85.7,76.2,70.0,73.4,68.6,65.2,89,78,62,30.06,29.93,6,0,6,0.00
2013-5-23,84.2,74.8,69.8,71.6,67.9,65.3,89,79,61,29.99,29.84,7,0,7,0.00
2013-5-24,72.4,65.3,53.1,66.4,54.6,40.4,91,70,41,30.20,29.83,9,1,9,0.10
2013-5-25,74.5,58.9,43.2,47.3,42.3,37.2,82,57,29,30.28,30.15,9,1,9,0.00
2013-5-26,74.5,59.5,45.9,51.6,46.4,39.8,83,65,35,30.30,30.19,5,0,5,0.00
2013-5-27,81.9,66.7,49.7,61.5,52.9,44.6,85,64,39,30.30,30.17,7,0,7,0.00
2013-5-28,86.9,73.5,59.2,69.0,61.7,52.0,82,67,53,30.28,30.16,5,0,5,0.00
2013-5-29,88.9,76.8,63.2,68.9,63.9,57.6,85,66,46,30.27,30.18,5,1,5,0.00
2013-5-30,88.2,76.5,63.7,71.2,64.3,58.4,86,68,46,30.29,30.20,6,0,6,0.00
2013-5-31,89.5,78.3,66.6,73.0,66.6,61.7,86,69,45,30.25,30.12,5,0,5,0.00
2013-6-1,90.9,79.5,68.0,72.1,66.8,62.9,86,67,46,30.17,30.04,8,1,8,0.00
2013-6-2,88.6,79.0,68.9,71.1,67.4,62.8,84,68,52,30.08,29.94,7,1,7,0.07
2013-6-3,74.9,72.8,72.2,68.9,68.2,67.4,87,85,78,30.03,29.95,1,0,2,0.07
2013-6-6,72.5,71.5,70.6,69.5,68.4,67.5,90,90,90,29.94,29.90,2,0,3,0.01
2013-6-7,77.8,71.8,69.5,75.0,69.2,66.9,93,91,90,29.92,29.55,6,0,6,3.19
2013-6-8,83.3,74.6,68.8,73.1,68.7,65.8,93,83,62,30.15,29.88,6,0,6,0.03
2013-6-9,89.5,78.0,66.8,76.7,70.5,63.7,90,79,60,30.23,30.12,5,0,5,0.03
2013-6-10,83.2,76.0,72.4,78.5,72.0,68.1,91,87,78,30.16,29.95,8,1,8,0.49
2013-6-11,86.4,77.4,70.2,72.9,68.4,64.5,90,75,52,30.01,29.95,8,1,8,0.00
2013-6-12,90.9,79.1,64.8,75.9,70.0,60.7,88,75,56,30.03,29.92,9,0,9,0.02
2013-6-13,95.8,80.8,70.0,79.9,71.6,64.5,90,75,47,29.92,29.65,13,1,13,0.19
2013-6-14,82.3,72.3,61.6,65.6,61.3,57.3,88,70,48,30.07,29.78,5,0,5,0.00
2013-6-15,86.8,72.8,58.3,67.3,61.5,53.8,87,70,43,30.17,30.06,6,0,6,0.00
2013-6-16,89.3,77.0,64.4,72.0,65.7,57.3,83,69,53,30.17,30.05,8,1,8,0.00
2013-6-17,85.3,77.4,71.5,75.8,69.6,64.5,82,77,65,30.09,29.98,6,0,6,0.09
2013-6-18,84.1,75.6,70.9,75.2,70.4,66.7,89,84,73,30.02,29.80,7,0,10,1.16
2013-6-19,83.2,74.2,66.4,71.6,67.0,63.2,91,79,62,30.18,29.92,0,0,0,0.01
2013-6-20,84.6,74.5,65.0,65.9,63.0,54.8,88,69,49,30.30,30.18,0,0,0,0.00
2013-6-21,85.1,72.4,57.4,64.5,59.0,51.5,83,65,40,30.31,30.24,0,0,0,0.00
2013-6-22,83.2,74.8,70.4,71.8,67.3,62.9,83,78,65,30.27,30.17,2,0,2,0.03
2013-6-23,87.7,77.9,68.8,74.1,68.4,63.2,84,73,59,30.27,30.18,4,0,4,0.02
2013-6-24,89.6,79.6,72.4,71.1,67.5,63.1,79,67,53,30.26,30.14,5,0,5,0.00
2013-6-25,90.4,79.7,70.9,68.0,63.2,58.4,71,58,47,30.18,30.04,5,0,5,0.00
2013-6-26,92.7,80.0,71.1,67.3,59.6,52.8,61,51,41,30.09,29.93,8,1,8,0.31
2013-6-27,90.0,78.5,69.1,59.9,52.6,43.6,53,42,30,29.97,29.76,8,0,8,0.01
2013-6-28,94.0,81.2,72.7,67.2,40.0,13.2,43,25,8,29.81,29.62,8,1,8,0.96
2013-6-29,85.9,77.4,70.4,23.0,16.6,11.3,9,2,1,29.79,29.65,4,0,5,0.81
2013-6-30,88.0,76.9,72.4,24.7,16.3,12.8,1,1,1,29.92,29.77,5,0,5,0.00
2013-7-1,83.0,76.3,70.6,20.9,15.8,11.3,1,1,1,30.07,29.89,9,0,9,0.00
2013-7-2,79.6,74.7,67.3,54.3,14.8,8.1,47,1,1,30.23,29.89,5,0,5,0.02
2013-7-3,82.8,77.1,73.6,56.9,34.1,13.8,47,22,1,30.01,29.92,7,0,7,0.67
2013-7-4,88.0,80.7,76.5,58.6,36.5,2.8,48,22,1,30.05,29.94,5,0,5,0.00
2013-7-5,85.5,77.8,74.5,22.8,16.9,14.4,1,1,1,30.04,29.99,4,0,4,0.00
2013-7-12,78.5,73.2,71.5,68.4,67.0,57.0,86,81,51,29.78,29.71,1,0,1,0.00
2013-7-13,79.7,74.2,70.4,75.7,70.9,66.3,92,89,86,29.95,29.76,3,0,3,1.04
2013-7-14,87.7,77.7,70.9,77.8,72.2,68.5,94,84,62,30.06,29.94,4,0,4,0.00
2013-7-15,90.4,79.7,70.2,76.7,71.8,66.8,91,78,56,30.07,29.99,4,0,4,0.00
2013-7-16,93.2,81.4,69.7,78.9,72.8,66.2,91,76,58,30.02,29.92,5,0,5,0.00
2013-7-17,94.0,84.1,74.3,79.5,74.6,70.9,90,75,54,29.98,29.85,2,0,2,0.00
2013-7-18,94.3,84.4,74.9,80.7,76.1,71.5,89,77,55,29.89,29.78,4,0,4,0.01
2013-7-19,92.3,83.2,74.5,80.9,75.4,71.5,91,78,62,29.84,29.72,4,0,5,0.04
2013-7-20,90.0,80.8,75.8,78.7,74.1,71.5,87,80,64,29.78,29.66,6,0,6,0.00
2013-7-21,88.9,79.6,74.5,77.1,73.5,70.3,89,82,64,29.74,29.65,4,0,4,0.00
2013-7-22,88.6,79.3,72.7,78.3,73.6,69.7,92,83,66,29.70,29.56,5,0,6,0.00
2013-7-23,90.2,81.8,74.9,76.3,73.2,71.1,89,76,56,29.59,29.46,8,1,8,0.00
2013-7-24,92.7,81.6,70.9,77.5,71.7,67.1,90,74,51,29.60,29.47,4,0,4,0.00
2013-7-25,80.3,74.7,68.8,71.3,68.3,64.1,88,81,71,29.78,29.57,3,0,3,0.01
2013-7-26,85.5,74.5,63.2,68.9,64.8,59.5,91,73,49,29.86,29.77,5,0,5,0.00
2013-7-27,87.7,75.8,67.0,74.4,68.4,63.1,90,79,55,29.81,29.67,6,0,6,0.19
2013-7-28,87.5,77.8,70.7,76.5,71.2,67.8,92,81,63,29.74,29.67,6,0,6,0.01
2013-7-29,87.1,77.8,70.4,72.9,69.0,62.6,91,75,56,29.90,29.73,4,0,4,0.03
2013-7-30,88.2,76.4,63.0,72.6,66.6,58.2,87,73,53,29.97,29.88,3,0,3,0.00
2013-7-31,84.6,75.2,71.6,75.8,70.5,67.2,92,85,72,29.89,29.75,3,0,3,0.56
2013-8-1,84.8,76.1,71.1,76.6,71.9,68.2,94,87,73,29.77,29.60,7,0,7,0.18
2013-8-2,88.9,78.3,68.0,74.8,70.2,65.3,92,77,55,29.76,29.64,5,0,5,0.01
2013-8-3,88.6,76.9,71.3,79.4,72.2,67.9,92,86,71,29.76,29.65,8,0,8,0.60
2013-8-4,84.4,74.9,67.5,73.3,68.3,62.8,94,81,55,29.77,29.63,3,0,3,0.00
2013-8-5,84.2,73.3,63.2,69.7,64.8,59.6,91,76,49,29.85,29.75,4,0,4,0.00
2013-8-6,82.8,75.1,68.9,73.6,68.6,64.5,91,81,70,29.81,29.73,7,0,7,0.13
2013-8-7,88.0,77.5,69.8,74.8,70.4,66.1,91,80,58,29.85,29.77,5,0,5,0.00
2013-8-8,89.3,80.5,71.3,76.8,72.8,67.9,91,78,59,29.81,29.74,4,0,4,0.00
2013-8-9,92.2,82.1,73.8,79.4,74.5,70.9,92,79,60,29.79,29.72,6,0,6,0.00
2013-8-10,93.6,81.0,75.2,81.5,75.0,71.6,91,83,61,29.84,29.74,6,0,7,0.50
2013-8-11,91.4,81.2,73.3,78.9,74.5,70.8,93,81,58,29.85,29.74,5,0,6,0.02
2013-8-12,92.3,82.3,73.8,77.3,73.7,71.0,92,77,54,29.79,29.67,6,0,6,0.00
2013-8-13,89.3,78.7,72.0,78.6,73.5,68.9,92,84,67,29.74,29.51,6,0,7,0.81
2013-8-14,77.0,72.5,62.3,71.6,65.9,57.3,91,80,66,29.84,29.56,3,0,3,0.00
2013-8-15,78.3,66.7,59.8,64.6,59.8,56.1,89,79,56,29.91,29.81,3,0,3,0.00
2013-8-16,72.7,66.6,59.9,64.6,61.2,56.4,90,83,73,29.92,29.84,2,0,2,0.00
2013-8-17,72.9,68.2,63.2,70.5,65.1,59.3,94,90,87,29.92,29.86,2,0,2,0.17
2013-8-18,81.7,73.2,68.2,72.9,68.6,64.5,94,86,69,29.95,29.85,8,0,8,0.05
2013-8-19,76.0,70.4,67.1,72.5,67.7,64.5,94,91,88,29.94,29.83,2,0,2,0.59
2013-8-20,82.6,75.0,67.3,75.3,70.8,65.5,94,87,75,29.93,29.85,3,0,3,0.00
2013-8-21,86.8,76.9,72.4,79.0,72.9,69.6,94,88,70,29.97,29.84,3,0,4,0.05
2013-8-22,88.6,78.0,70.2,76.7,71.5,67.4,94,81,58,29.88,29.73,7,0,7,0.00
2013-8-23,88.2,77.8,69.8,76.1,71.2,65.4,92,81,62,29.81,29.66,7,0,7,0.00
2013-8-24,83.9,73.7,65.2,67.5,63.3,60.6,89,71,48,30.05,29.81,4,0,4,0.00
2013-8-25,81.4,70.7,61.9,67.5,60.8,56.3,91,72,50,30.13,30.03,4,0,4,0.00
2013-8-26,82.8,69.2,55.8,67.1,59.2,51.5,90,73,45,30.06,29.85,4,0,4,0.00
2013-8-27,88.0,75.3,61.2,75.0,67.5,57.7,90,78,57,29.86,29.69,6,0,6,0.00
2013-8-28,81.4,75.6,68.8,75.8,71.8,65.5,92,88,80,29.72,29.59,4,0,4,0.01
2013-8-29,87.5,79.0,72.5,76.8,72.6,67.8,92,81,64,29.76,29.57,4,0,5,0.00
2013-8-30,86.9,76.0,67.0,72.3,67.6,63.7,91,77,53,29.80,29.68,4,0,4,0.00
2013-8-31,88.9,77.6,66.6,76.0,69.6,63.2,92,78,57,29.71,29.60,5,0,5,0.00
2013-9-1,89.3,77.6,71.1,78.3,72.4,67.7,91,84,65,29.64,29.52,5,0,6,1.60
2013-9-2,88.6,78.8,70.7,78.2,73.0,68.0,94,83,63,29.62,29.53,7,0,7,0.00
2013-9-3,88.0,77.5,70.9,78.6,72.6,68.1,93,85,70,29.67,29.54,4,0,4,0.05
2013-9-4,84.8,75.8,68.6,72.0,68.7,65.5,91,79,62,29.83,29.67,4,0,4,0.00
2013-9-5,86.8,74.3,64.4,71.0,64.6,58.9,92,74,41,29.83,29.76,6,0,6,0.00
2013-9-6,82.1,72.0,62.8,68.0,62.2,56.7,88,73,50,29.91,29.81,4,0,4,0.00
2013-9-7,82.6,71.0,60.1,67.0,62.5,56.3,89,76,53,29.87,29.71,6,0,6,0.00
2013-9-8,86.8,74.4,63.0,69.8,65.3,59.4,91,75,47,29.73,29.64,4,0,4,0.00
2013-9-9,86.6,68.9,65.9,72.4,65.0,62.6,90,87,62,29.86,29.72,2,0,2,0.00
2013-9-11,90.0,79.5,67.1,74.7,70.4,63.6,90,75,55,29.94,29.81,4,0,6,0.00
2013-9-12,90.0,78.6,68.9,75.9,70.6,65.5,90,78,57,29.81,29.54,5,0,5,0.00
2013-9-13,85.5,75.6,65.7,69.8,64.5,57.2,88,70,48,29.62,29.49,5,0,6,0.00
2013-9-14,76.7,67.1,60.3,58.1,53.4,50.1,76,63,43,29.87,29.62,5,0,5,0.00
2013-9-15,80.1,66.8,54.0,62.5,56.6,49.2,87,71,48,29.97,29.85,5,0,5,0.00
2013-9-16,84.1,72.6,64.4,73.0,64.2,59.1,92,76,49,29.93,29.77,6,0,6,0.11
2013-9-17,76.9,67.5,58.5,61.0,55.5,50.2,85,67,42,30.06,29.92,4,0,4,0.00
2013-9-18,73.8,61.5,51.5,56.4,52.0,46.8,88,73,47,30.04,29.90,3,0,3,0.02
2013-9-19,76.0,65.5,56.0,63.9,58.3,51.1,88,78,58,29.93,29.81,4,0,4,0.00
2013-9-20,72.4,67.3,63.2,67.2,63.6,59.0,92,88,83,29.82,29.70,4,0,4,0.38
2013-9-21,75.2,70.3,66.2,71.1,67.3,64.0,93,90,85,29.70,29.46,4,0,4,0.54
2013-9-22,77.6,68.9,61.2,66.0,62.1,55.7,94,80,54,29.63,29.44,4,0,4,0.43
2013-9-23,72.4,63.1,55.1,58.1,54.6,50.6,86,75,55,29.80,29.62,4,0,4,0.00
2013-9-24,74.7,63.0,54.0,61.9,56.2,49.9,90,79,58,29.83,29.68,4,0,4,0.00
2013-9-25,74.2,63.5,52.9,64.0,57.9,49.4,91,82,63,29.69,29.60,3,0,3,0.00
2013-9-26,76.7,66.5,58.7,62.4,58.5,54.8,90,77,52,29.77,29.60,4,0,5,0.00
2013-9-27,74.0,63.4,54.7,62.6,56.5,51.2,92,79,62,29.92,29.77,3,0,3,0.00
2013-9-28,71.8,61.7,53.1,59.6,54.7,49.8,91,79,61,29.99,29.89,3,0,3,0.00
2013-9-29,74.0,62.1,52.9,60.1,54.5,49.6,91,77,53,29.90,29.75,4,0,4,0.00
2013-9-30,75.4,62.5,52.9,62.5,55.3,49.2,91,78,53,29.83,29.72,3,0,3,0.00
2013-10-1,81.9,65.1,52.2,65.8,57.9,48.4,90,79,50,29.85,29.74,5,0,5,0.00
2013-10-2,83.5,68.9,56.7,66.6,59.6,53.0,91,74,46,29.85,29.76,7,0,7,0.00
2013-10-3,84.1,70.3,58.3,69.6,61.9,54.6,90,76,51,29.86,29.78,3,0,3,0.00
2013-10-4,86.4,72.2,61.6,69.4,63.8,57.7,91,76,49,29.86,29.77,7,0,7,0.00
2013-10-5,88.2,73.9,61.9,72.4,64.8,57.9,89,75,48,29.84,29.75,5,0,5,0.00
2013-10-6,82.8,72.2,63.0,73.8,66.7,59.1,91,83,69,29.80,29.67,5,0,5,0.03
2013-10-7,74.0,71.1,65.0,71.6,68.3,61.6,93,91,84,29.72,29.58,4,0,7,1.23
2013-10-8,64.8,60.4,58.7,61.8,52.9,49.1,90,76,70,29.92,29.70,4,1,4,0.01
2013-10-9,62.8,58.9,55.4,56.2,53.4,50.6,91,82,75,29.91,29.80,5,1,8,0.13
2013-10-10,61.0,57.5,54.5,58.5,55.0,52.1,92,91,90,29.80,29.65,5,1,6,0.08
2013-10-11,66.6,62.5,59.6,62.4,59.6,57.6,93,90,84,29.69,29.62,4,0,4,0.01
2013-10-12,70.0,65.0,61.9,65.3,62.1,59.6,93,91,84,29.80,29.67,4,0,4,0.01
2013-10-13,67.3,64.6,62.6,64.8,62.3,60.7,93,92,89,29.92,29.79,4,0,4,0.11
2013-10-14,66.1,62.7,57.6,62.8,60.2,55.0,94,91,86,29.96,29.90,4,0,4,0.04
2013-10-15,70.9,62.2,54.2,63.4,58.0,51.8,94,86,72,29.92,29.77,3,0,4,0.00
2013-10-16,70.9,65.7,61.6,64.5,61.9,58.7,92,88,77,29.78,29.68,4,0,4,0.00
2013-10-17,76.3,66.8,59.4,67.5,62.7,57.2,93,87,70,29.69,29.56,6,0,7,0.00
2013-10-18,68.9,64.7,60.1,65.1,55.2,50.5,88,72,54,29.76,29.59,2,0,3,0.00
2013-10-19,70.2,63.4,59.2,65.4,59.9,55.4,91,88,84,29.70,29.53,3,0,3,0.02
2013-10-20,83.7,57.8,45.4,59.5,47.9,40.2,91,73,32,29.84,29.61,4,0,4,0.00
2013-10-21,65.9,52.4,39.6,52.5,44.7,36.0,90,76,42,29.88,29.72,4,0,4,0.00
2013-10-22,64.4,57.2,50.9,59.0,53.5,47.4,91,87,80,29.72,29.52,2,0,2,0.00
2013-10-23,65.9,58.1,48.8,57.3,48.2,36.1,94,72,42,29.70,29.39,12,1,12,0.01
2013-10-24,58.1,48.1,38.3,40.5,36.7,33.3,84,66,44,29.89,29.70,8,1,8,0.00
2013-10-25,55.8,46.0,35.6,38.5,34.3,29.9,82,65,40,30.07,29.89,6,0,6,0.00
2013-10-26,58.5,43.2,30.8,40.1,33.1,26.5,87,70,42,30.06,29.77,8,0,8,0.00
2013-10-27,65.9,53.0,41.8,46.5,41.9,37.1,86,68,42,29.84,29.75,6,0,6,0.00
2013-10-28,68.9,55.4,43.7,55.0,47.9,39.1,89,77,53,29.97,29.83,4,0,4,0.00
2013-10-29,71.1,59.5,50.6,59.1,53.0,46.8,90,80,60,30.05,29.95,5,0,5,0.00
2013-10-30,72.5,61.4,54.7,62.2,56.3,50.6,91,84,67,30.01,29.87,3,0,3,0.00
2013-10-31,74.9,64.7,55.8,63.4,57.6,52.6,92,79,60,29.91,29.64,5,0,5,0.00
2013-11-1,71.6,68.3,63.7,67.0,64.5,61.1,93,88,79,29.64,29.40,5,1,6,0.86
2013-11-2,70.2,61.6,51.8,61.1,53.8,45.0,93,78,42,29.65,29.40,8,1,8,0.05
2013-11-3,63.0,51.4,41.8,46.6,41.1,36.3,88,69,44,30.08,29.65,5,0,5,0.00
2013-11-4,54.7,45.3,36.9,37.9,34.6,31.9,83,67,46,30.27,30.08,4,0,4,0.00
2013-11-5,58.7,49.2,38.2,49.3,42.1,32.1,85,77,66,30.25,30.13,5,0,5,0.00
2013-11-6,69.8,55.9,45.0,57.0,49.3,41.7,90,80,58,30.14,29.83,4,0,4,0.00
2013-11-7,68.8,60.2,47.2,63.1,53.2,34.4,93,78,51,29.83,29.63,6,1,6,0.08
2013-11-8,56.5,45.5,34.7,36.5,32.1,28.8,82,61,36,30.03,29.82,7,1,7,0.00
2013-11-9,58.3,44.3,32.2,39.7,33.4,27.4,86,68,41,30.08,29.88,4,0,4,0.00
2013-11-10,70.2,53.2,39.8,45.3,37.8,30.6,84,59,31,29.95,29.76,11,1,11,0.00
2013-11-11,58.7,45.8,33.3,36.9,31.6,26.3,79,59,36,30.06,29.84,4,0,4,0.00
2013-11-12,59.8,42.7,34.6,43.3,32.3,18.0,86,68,42,30.13,29.75,8,1,8,0.01
2013-11-13,45.0,34.9,28.1,23.1,19.8,17.8,73,55,35,30.23,30.12,8,1,8,0.00
2013-11-14,56.5,39.3,24.3,32.6,24.7,18.7,84,59,32,30.17,30.03,6,0,7,0.00
2013-11-15,61.9,46.2,29.5,46.5,35.1,22.9,82,67,45,30.06,29.92,3,0,3,0.00
2013-11-16,65.2,56.3,49.7,57.8,51.1,42.8,89,83,75,29.98,29.91,3,0,3,0.00
2013-11-17,69.5,61.0,53.1,63.7,57.0,50.0,93,87,76,29.94,29.61,4,0,5,0.04
2013-11-18,73.8,65.3,53.1,65.9,52.9,33.0,94,67,41,29.68,29.51,8,1,9,0.01
2013-11-19,56.0,48.7,42.1,33.8,30.2,28.5,62,50,36,30.03,29.67,6,1,6,0.00
2013-11-20,52.9,44.8,37.4,37.9,32.3,27.1,76,62,49,30.16,30.02,7,1,7,0.00
2013-11-21,60.5,50.5,41.6,48.7,42.6,35.2,81,74,64,30.21,30.09,4,0,4,0.00
2013-11-22,69.3,58.4,47.2,59.9,52.3,42.9,87,80,71,30.10,29.79,5,0,5,0.02
2013-11-23,62.3,55.9,43.0,58.4,44.6,23.5,90,68,41,29.88,29.74,6,0,6,0.01
2013-11-24,42.8,33.8,25.6,25.6,12.2,5.7,59,41,27,30.25,29.87,11,2,11,0.00
2013-11-25,41.6,31.7,20.0,21.2,14.7,11.4,73,51,30,30.29,30.08,5,0,5,0.03
2013-11-26,64.8,45.8,35.3,63.4,37.3,20.5,96,74,50,30.09,29.28,8,1,8,0.93
2013-11-27,52.6,41.5,31.0,50.2,37.5,21.6,92,86,67,29.86,29.20,9,2,9,0.88
2013-11-28,43.0,33.1,24.8,26.4,22.5,18.6,81,66,45,30.19,29.86,6,0,6,0.00
2013-11-29,48.8,35.3,25.2,29.7,25.2,21.0,86,68,43,30.34,30.16,5,0,5,0.00
2013-11-30,47.5,36.6,28.8,34.4,27.9,22.3,81,71,57,30.34,30.07,6,0,6,0.00
2013-12-1,55.3,39.8,28.3,38.3,31.1,24.3,87,73,48,30.08,29.73,7,0,7,0.00
2013-12-2,58.1,43.3,34.2,45.8,36.5,29.4,88,77,57,29.73,29.54,4,0,4,0.00
2013-12-3,58.0,45.7,32.6,47.4,39.4,28.9,90,79,65,29.71,29.58,4,0,4,0.00
2013-12-4,62.5,56.3,50.9,56.7,51.8,46.1,89,85,81,29.80,29.69,2,0,2,0.00
2013-12-5,66.2,60.6,53.8,63.8,58.3,50.9,94,92,89,29.85,29.75,6,0,6,0.07
2013-12-6,77.9,70.2,64.4,66.1,63.1,61.6,93,79,62,29.79,29.68,9,1,9,0.00
2013-12-7,69.1,49.6,43.0,64.3,43.4,32.1,89,79,65,30.16,29.70,6,1,8,0.16
2013-12-8,42.8,36.8,34.4,33.3,31.6,28.8,90,82,66,30.17,29.99,6,1,6,0.13
2013-12-9,46.1,40.9,36.0,44.0,38.7,33.0,93,92,89,29.99,29.76,3,0,3,0.28
2013-12-10,47.0,43.5,31.1,45.4,40.5,27.3,94,89,77,30.03,29.62,5,0,5,0.54
2013-12-11,47.2,35.3,25.6,31.1,27.8,22.5,90,76,47,30.16,29.98,7,0,7,0.01
2013-12-12,43.2,34.3,26.8,27.4,23.2,14.9,87,66,32,30.12,29.97,7,1,8,0.00
2013-12-13,49.0,34.7,23.4,29.2,23.8,18.6,86,67,38,30.09,29.97,6,0,6,0.00
2013-12-14,47.9,41.0,35.8,40.8,35.6,29.0,91,81,56,30.00,29.48,7,0,7,0.89
2013-12-15,52.7,43.5,34.4,43.7,36.6,28.2,92,78,52,29.77,29.41,11,1,11,0.02
2013-12-16,52.6,39.1,29.7,37.0,31.5,25.8,88,75,53,29.88,29.76,6,0,7,0.00
2013-12-17,59.0,44.8,31.3,42.3,35.3,27.6,90,71,48,29.82,29.57,10,1,10,0.00
2013-12-18,47.5,39.1,30.2,36.8,26.2,21.6,79,61,37,29.99,29.73,10,1,10,0.00
2013-12-19,59.4,42.6,28.1,33.6,27.5,22.0,82,58,31,30.02,29.91,6,0,7,0.00
2013-12-20,65.2,52.1,39.1,54.4,43.4,30.2,83,72,65,29.95,29.82,5,0,5,0.00
2013-12-21,72.7,59.6,47.3,65.1,53.7,43.1,90,81,67,29.86,29.74,8,1,8,0.00
2013-12-22,77.8,70.0,64.3,68.2,64.3,60.7,92,83,65,29.82,29.72,9,2,9,0.42
2013-12-23,66.1,59.9,49.0,63.4,57.0,42.5,93,90,78,29.86,29.71,7,1,8,1.87
2013-12-24,48.8,41.7,31.1,42.8,30.4,17.2,88,65,48,30.15,29.83,9,1,9,0.02
2013-12-25,38.3,30.5,24.3,18.9,17.1,14.2,72,58,42,30.25,30.09,5,0,5,0.00
2013-12-26,50.8,36.2,24.8,33.2,26.9,17.9,86,70,43,30.10,29.93,7,0,7,0.01
2013-12-27,50.4,35.9,26.5,29.8,25.0,22.0,85,67,38,30.16,30.06,4,0,4,0.00
2013-12-28,57.2,40.8,25.9,36.7,29.3,20.9,85,66,37,30.10,29.86,6,0,6,0.00
2013-12-29,60.5,48.8,42.5,58.3,44.8,36.5,94,86,66,29.86,29.38,11,0,11,1.70
2013-12-30,53.6,44.8,34.6,46.1,39.6,31.6,93,82,68,29.84,29.62,4,0,5,0.00
2013-12-31,50.4,41.9,31.5,38.9,32.3,25.8,89,70,39,30.05,29.82,12,1,12,0.01
2014-1-1,50.8,38.5,30.6,33.5,29.4,25.9,86,71,45,30.12,29.84,5,0,5,0.00
2014-1-2,48.1,42.0,35.6,42.8,37.3,29.7,91,83,74,29.85,29.26,9,0,9,0.37